SCP
-0 0 0 0 0 0 0 0 0 1 1 1 1 0 0 1 1 0 0 0 0 0 0 0 0 0 0 0 0 0 0 0 0 0 0 0 0 0 0 0 1 1 1
0 0 0 0 0 0 0 0 0 0 0 0 0 0 1 0 0 0 0 0 0 0 0 0 0 0 0 0 0 0 0 0 0 0 0 0 0 0 0 1 1 1 1
0 0 0 0 0 0 0 0 0 0 0 0 1 1 1 1 0 0 0 0 0 0 0 0 0 0 0 0 0 0 -0 -0 -0 0 0 0 0 0 0 0 1 1 1
0 0 0 0 0 0 0 0 0 0 0 0 0 0 0 0 1 0 0 0 0 0 0 0 0 0 0 0 -0 0 0 0 -0 -0 0 0 0 0 0 0 0 1 1
0 0 0 0 0 0 0 0 0 0 0 0 0 0 0 0 0 0 0 0 0 0 0 0 0 0 -0 0 0 0 0 0 -0 0 -0 0 0 0 0 0 0 1 1
0 0 0 0 0 0 0 0 0 0 0 0 0 0 0 0 0 0 0 0 0 0 0 0 0 -0 -0 0 0 0 0 -0 -0 0 0 0 0 0 0 0 0 0 1
0 0 0 0 0 0 0 0 0 0 0 0 0 0 0 0 0 0 0 0 0 0 -0 -0 -0 -0 -0 0 0 0 -0 -0 -0 0 0 0 0 0 0 0 0 0 0
0 0 0 0 0 0 0 0 0 0 0 0 0 0 0 0 0 0 0 0 0 0 -0 -0 -0 0 -0 0 0 0 -0 -0 0 0 -0 0 0 0 0 0 0 0 0
0 0 0 0 -0 -0 -0 -0 -0 0 0 0 0 0 0 0 0 0 0 0 0 -0 -0 0 -0 -0 0 -0 -0 -0 -0 0 0 0 -0 0 -0 0 0 0 0 1 0
0 0 0 0 -0 -0 -0 -0 -0 -0 0 0 0 0 0 0 0 0 -0 0 -0 -0 -0 0 0 0 -0 -0 -0 -0 -0 0 0 -0 -0 -0 0 0 0 0 0 0 0
0 -0 0 0 -0 -0 -0 -0 -0 -0 0 0 0 0 0 0 0 0 -0 0 0 -0 0 0 0 0 -0 0 -0 0 0 0 -0 -0 -0 0 0 0 0 0 0 0 0
-0 -0 0 -0 -0 -0 -0 -0 -0 -0 0 0 0 0 0 0 0 0 0 -0 -0 -0 -0 0 0 0 0 0 0 0 0 0 0 -0 -0 0 0 0 0 -0 0 0 0
-0 -0 -0 -0 -0 -0 -0 -0 -0 -0 -0 -0 -0 0 0 0 0 0 0 0 0 -0 -0 -0 0 0 0 0 0 0 0 0 0 0 0 0 0 -0 -0 -0 0 -0 -0
-0 -0 -0 -0 -0 -0 -0 -0 -0 -0 -0 -0 0 0 0 0 0 0 0 -0 -0 0 0 0 0 0 0 0 0 0 0 0 0 0 0 0 0 0 -0 0 -0 0 0
-0 -0 -0 -0 -0 -0 -0 -0 -0 -0 -0 -0 -0 -0 0 0 0 0 0 0 -0 -0 0 0 0 0 0 0 0 0 0 0 0 0 -0 0 0 -0 0 -0 -0 -0 -0
-0 -0 -0 -0 -0 -0 -0 -0 -0 -0 -0 -0 -0 -0 0 0 0 0 0 0 0 0 -0 -0 0 0 0 0 0 0 0 0 0 0 0 -0 -0 -0 -0 -0 -0 -0 0
-0 -0 -0 -0 -0 -0 -0 -0 -0 -0 -0 -0 -0 0 0 0 0 0 0 0 0 0 -0 0 -0 0 0 0 0 0 0 0 0 0 0 0 0 0 -0 -0 -0 -0 -0
0 -0 -0 -0 -0 -0 -0 -0 -0 -0 -0 -0 -0 -0 0 0 0 0 0 0 0 0 0 0 0 0 0 0 0 0 0 0 0 0 0 0 0 0 0 -0 -0 -0 0
0 0 -0 -0 -0 -0 -0 -0 -0 -0 -0 -0 -0 -0 0 0 0 0 0 0 0 0 0 -0 0 -0 -0 -0 -0 0 -0 -0 0 0 0 0 0 0 0 -0 -0 -0 0
0 0 -0 -0 -0 -0 -0 -0 -0 -0 -0 -0 -0 -0 -0 0 0 0 0 0 0 0 0 0 -0 -0 0 -0 0 0 0 -0 0 0 0 0 0 0 0 0 -0 -0 -0
0 0 -0 -0 -0 -0 -0 -0 -0 -0 -0 -0 -0 -0 -0 -0 0 0 0 0 0 0 0 0 0 -0 -0 -0 -0 -0 -0 0 0 0 0 0 0 0 -0 0 0 0 0
0 -0 -0 -0 -0 -0 -0 -0 -0 -0 -0 -0 -0 -0 -0 0 0 0 0 0 0 0 0 0 0 -0 -0 -0 -0 -0 0 -0 0 0 0 0 0 0 0 0 0 0 0
0 0 -0 -0 -0 -0 -0 -0 -0 -0 -0 -0 -0 -0 -0 -0 0 0 0 0 0 0 0 0 0 0 0 -0 -0 0 0 0 0 0 -0 -0 -0 -0 0 -0 -0 0 0
0 0 -0 -0 -0 -0 -0 -0 -0 -0 -0 -0 -0 -0 -0 -0 -0 0 0 0 0 0 0 0 0 0 0 -0 -0 -0 -0 -0 -0 -0 -0 -0 -0 0 -0 -0 0 -0 -0
0 0 -0 -0 -0 -0 -0 -0 -0 -0 -0 -0 -0 -0 -0 -0 -0 -0 0 0 0 0 0 0 0 0 0 0 0 0 0 0 -0 -0 -0 -0 -0 -0 -0 -0 0 0 0
0 0 0 0 -0 -0 -0 -0 -0 -0 -0 -0 -0 -0 -0 -0 -0 -0 0 0 0 -0 -0 0 -0 -0 -0 -0 -0 -0 -0 0 -0 -0 0 0 0 0 0 0 0 0 0
Wind_Speed_500mb
49 39 38 31 27 27 28 35 45 53 50 45 36 28 24 21 19 21 24 25 27 25 31 34 31 31 34 30 27 27 29 26 28 25 23 20 19 20 21 23 20 19 20
37 30 28 20 19 20 27 37 44 47 49 36 29 23 19 17 18 19 21 21 22 23 23 22 22 21 21 25 28 24 20 24 28 24 24 21 16 18 19 21 21 20 20
39 25 15 14 18 23 30 38 43 50 44 31 26 22 15 16 15 16 15 17 17 15 13 14 16 20 21 23 19 18 22 22 28 23 11 15 15 22 20 22 19 19 22
20 14 17 18 21 27 34 42 45 47 40 32 20 18 13 13 14 13 16 16 15 14 13 15 15 16 16 15 14 16 20 20 26 25 17 10 9 27 17 21 19 19 22
14 16 18 23 29 37 42 42 46 38 30 27 17 10 10 10 9 11 16 18 17 15 16 16 14 12 13 14 19 18 15 16 23 20 20 12 12 18 21 29 23 22 21
16 21 25 33 41 42 42 41 37 30 25 20 15 12 12 11 9 12 16 15 12 14 17 15 12 13 15 17 19 18 16 15 18 20 17 14 13 16 18 27 26 22 23
25 31 38 42 48 47 43 37 31 27 23 19 12 12 11 10 7 10 14 10 9 11 17 17 15 14 16 18 19 18 16 17 19 22 18 14 12 9 21 26 25 31 23
28 35 41 46 48 46 41 34 30 26 22 18 13 13 8 6 6 7 5 5 7 8 14 14 14 14 17 20 20 17 12 12 16 17 16 17 14 9 17 26 35 37 29
31 41 47 48 47 44 39 33 28 25 23 17 14 11 6 4 6 3 3 3 4 5 12 15 13 13 17 21 22 16 13 14 17 14 14 13 10 16 19 25 34 30 17
39 48 49 49 45 41 36 30 26 25 24 16 13 9 5 3 3 3 4 5 7 11 16 15 15 15 17 20 21 17 15 20 18 16 19 19 26 20 17 27 36 16 18
47 52 51 48 45 41 35 30 28 26 24 18 13 9 2 2 5 6 6 6 9 12 18 16 16 19 20 20 18 17 18 16 16 15 19 23 30 22 21 39 29 25 23
51 52 53 51 46 42 35 31 29 26 24 20 14 9 3 2 9 8 7 5 10 10 20 17 15 16 20 20 18 17 16 14 13 19 24 28 27 29 22 29 26 24 30
52 54 53 51 47 43 36 32 30 27 25 21 16 12 6 5 7 7 8 9 10 14 17 19 17 16 17 17 16 15 15 18 13 13 20 21 29 33 24 27 26 24 24
55 55 53 51 46 42 37 33 31 28 26 23 20 14 8 8 9 10 10 12 12 15 15 19 19 18 18 16 16 17 17 23 15 16 18 20 23 21 22 21 25 26 36
52 55 56 53 48 43 39 35 32 31 28 24 22 18 14 11 13 12 10 13 15 15 18 22 20 20 19 17 17 22 21 23 20 19 21 23 24 23 22 19 23 28 43
49 53 54 54 51 46 43 39 35 34 30 25 24 21 18 13 12 11 10 14 17 19 19 20 21 24 22 20 21 21 18 18 21 23 23 22 22 21 22 19 21 30 42
53 56 59 57 53 47 46 43 37 36 32 28 25 24 21 17 12 10 10 12 19 19 20 23 23 26 24 24 26 21 17 14 20 27 24 25 23 19 19 21 27 28 27
50 50 54 55 53 46 46 43 39 38 35 30 27 26 24 20 15 12 12 12 20 15 14 23 26 25 30 31 25 21 22 22 28 30 27 28 21 19 25 26 31 30 41
43 44 50 56 55 51 48 46 43 40 38 35 30 28 28 24 19 16 12 13 15 13 17 23 32 28 31 30 21 22 25 30 28 27 32 37 41 41 35 40 39 39 42
47 45 48 54 56 55 51 50 47 44 43 39 34 30 30 27 22 19 14 14 12 13 11 20 34 32 33 32 27 26 20 35 42 38 32 39 43 44 36 44 49 50 50
32 42 53 62 62 60 56 52 49 46 43 40 37 33 32 29 25 21 17 17 15 14 17 30 40 33 34 35 30 25 30 36 45 41 38 52 41 34 37 37 45 45 51
33 49 55 60 62 64 60 55 52 46 43 42 40 36 34 31 28 25 21 20 19 18 20 29 31 30 37 39 37 38 35 39 41 33 40 36 33 38 38 41 39 40 46
30 46 49 55 62 66 64 59 53 51 48 45 44 40 36 36 32 30 27 23 22 19 20 21 24 32 34 41 39 39 40 34 34 29 28 33 36 34 33 35 36 39 27
34 49 54 57 63 67 66 58 55 54 52 49 47 44 41 38 37 34 30 26 24 24 23 23 24 24 27 40 48 46 38 36 31 33 33 34 35 33 36 36 37 27 30
36 48 58 62 65 69 67 61 58 58 56 51 48 47 44 43 39 38 35 32 28 25 25 25 24 27 27 29 43 50 47 43 34 36 37 31 27 30 31 33 31 28 32
37 46 55 56 59 65 70 66 63 64 62 57 53 50 47 46 41 42 38 43 35 37 36 34 27 25 26 30 35 43 49 49 46 41 32 32 32 32 32 32 31 29 33
Wind_Direction_500mb
281 279 275 276 254 232 206 202 200 197 188 195 196 210 228 240 248 256 259 256 262 262 266 266 257 246 239 240 239 241 245 233 211 191 184 181 192 196 202 210 203 200 211
283 274 268 254 230 202 190 188 186 190 189 187 190 204 215 236 245 255 254 255 255 266 266 253 239 236 231 232 238 238 231 204 191 178 172 168 181 198 198 193 191 198 198
279 264 227 203 184 179 180 179 180 184 183 182 195 215 228 247 267 266 258 244 250 250 241 228 222 229 233 239 231 213 190 193 184 180 188 175 184 179 186 188 186 190 185
251 213 185 167 167 164 161 162 170 178 188 195 192 196 219 244 239 233 243 242 245 225 218 221 229 236 233 215 205 192 202 191 183 184 192 197 163 181 171 180 183 178 177
220 194 175 160 154 152 154 159 169 176 185 193 182 199 226 224 232 245 252 245 236 214 218 227 228 228 203 188 187 195 191 184 185 182 183 190 186 203 190 170 170 171 178
159 154 153 149 147 148 154 159 166 172 182 178 186 204 192 202 240 266 262 249 251 219 210 212 223 210 188 187 186 191 171 171 176 190 199 204 183 182 179 177 174 173 160
153 151 152 153 148 153 158 160 165 170 172 172 180 187 192 220 265 277 275 256 229 202 211 208 213 200 178 182 186 186 180 189 196 207 212 197 187 189 179 174 169 161 157
155 154 154 156 153 156 161 161 168 170 171 171 178 185 208 243 279 283 256 222 197 192 192 192 197 187 174 178 187 182 167 184 172 174 170 201 211 221 188 169 170 157 149
157 155 156 156 157 161 163 164 168 170 169 171 177 188 199 223 251 265 200 176 138 156 170 171 179 164 167 179 187 183 170 164 159 174 171 193 219 162 165 171 175 154 152
157 157 160 159 160 163 161 163 169 168 168 172 172 181 192 229 225 177 192 168 156 148 157 162 160 153 161 176 182 192 178 164 160 160 163 165 162 140 145 156 161 171 171
161 161 161 162 162 164 163 167 167 167 171 170 168 165 162 237 172 160 154 157 147 148 158 159 158 155 156 164 175 170 174 178 169 161 149 144 148 153 135 150 154 168 177
161 162 163 163 165 166 168 171 170 170 172 171 162 150 122 166 173 141 117 122 137 142 156 157 155 150 157 160 163 162 171 165 157 155 149 154 159 136 136 142 156 181 191
158 162 165 167 170 169 172 176 174 173 173 169 164 150 126 132 152 138 125 116 123 133 146 162 163 153 150 151 157 166 169 185 164 161 165 150 156 158 144 149 155 154 145
163 165 167 171 174 172 176 179 178 177 175 169 167 164 142 137 145 140 116 124 123 132 142 151 157 159 153 154 163 175 172 171 163 170 147 154 171 163 158 158 157 155 146
167 171 171 173 175 174 178 181 181 179 177 173 171 171 158 142 127 109 111 132 126 139 139 154 147 164 161 162 166 161 167 174 183 174 170 166 155 160 165 158 159 156 154
176 176 174 175 177 177 180 182 182 181 178 175 175 174 173 170 156 134 110 126 141 131 141 147 154 156 155 155 155 161 169 168 162 163 168 158 149 146 146 152 155 156 157
181 180 179 179 179 179 181 183 180 179 178 177 177 176 176 176 165 160 144 139 137 142 141 150 157 153 150 147 143 147 151 156 169 167 157 145 141 154 161 160 153 162 176
189 185 181 181 180 177 181 181 179 179 178 179 180 179 176 177 173 157 155 134 147 143 160 168 162 156 153 142 133 127 130 134 130 149 148 145 138 145 152 144 142 167 152
199 192 188 180 177 176 181 181 179 180 181 183 183 182 177 175 174 165 156 147 145 145 140 167 173 165 159 151 146 142 133 129 132 138 142 138 121 120 124 139 138 137 141
195 190 185 182 179 177 179 182 181 181 184 186 183 182 179 178 176 171 160 151 141 130 129 161 167 167 165 146 146 133 137 138 130 122 122 153 136 130 118 127 128 132 131
206 194 184 183 181 178 178 183 185 185 185 184 182 182 180 180 180 176 167 156 137 131 118 124 147 152 155 148 142 137 140 144 130 118 118 128 129 133 132 133 137 135 137
205 197 189 184 182 181 181 184 188 184 183 183 183 183 182 179 183 182 172 161 154 135 134 136 152 162 167 159 153 143 148 137 139 133 133 128 129 133 135 139 147 148 144
210 197 194 190 182 184 185 186 187 183 182 184 184 185 183 182 186 184 179 171 164 158 146 144 147 170 171 174 165 156 156 149 142 141 144 141 142 144 144 145 147 149 142
206 195 191 197 187 187 188 189 184 182 184 184 184 186 186 185 188 188 190 185 180 178 170 164 162 165 172 182 178 172 168 170 162 169 159 154 154 150 153 154 154 154 158
203 195 195 197 198 187 187 186 185 182 184 186 186 187 189 189 192 190 195 194 196 187 185 180 174 170 174 184 182 188 186 179 176 168 169 168 167 171 175 180 183 182 181
206 201 198 199 200 195 186 186 187 185 184 185 188 191 190 193 195 195 200 198 199 202 187 188 178 184 184 193 177 178 180 180 188 182 184 186 186 188 191 192 194 195 195
Wind_Speed_850mb
49 39 38 31 27 27 28 35 45 53 50 45 36 28 24 21 19 21 24 25 27 25 31 34 31 31 34 30 27 27 29 26 28 25 23 20 19 20 21 23 20 19 20
37 30 28 20 19 20 27 37 44 47 49 36 29 23 19 17 18 19 21 21 22 23 23 22 22 21 21 25 28 24 20 24 28 24 24 21 16 18 19 21 21 20 20
39 25 15 14 18 23 30 38 43 50 44 31 26 22 15 16 15 16 15 17 17 15 13 14 16 20 21 23 19 18 22 22 28 23 11 15 15 22 20 22 19 19 22
20 14 17 18 21 27 34 42 45 47 40 32 20 18 13 13 14 13 16 16 15 14 13 15 15 16 16 15 14 16 20 20 26 25 17 10 9 27 17 21 19 19 22
14 16 18 23 29 37 42 42 46 38 30 27 17 10 10 10 9 11 16 18 17 15 16 16 14 12 13 14 19 18 15 16 23 20 20 12 12 18 21 29 23 22 21
16 21 25 33 41 42 42 41 37 30 25 20 15 12 12 11 9 12 16 15 12 14 17 15 12 13 15 17 19 18 16 15 18 20 17 14 13 16 18 27 26 22 23
25 31 38 42 48 47 43 37 31 27 23 19 12 12 11 10 7 10 14 10 9 11 17 17 15 14 16 18 19 18 16 17 19 22 18 14 12 9 21 26 25 31 23
28 35 41 46 48 46 41 34 30 26 22 18 13 13 8 6 6 7 5 5 7 8 14 14 14 14 17 20 20 17 12 12 16 17 16 17 14 9 17 26 35 37 29
31 41 47 48 47 44 39 33 28 25 23 17 14 11 6 4 6 3 3 3 4 5 12 15 13 13 17 21 22 16 13 14 17 14 14 13 10 16 19 25 34 30 17
39 48 49 49 45 41 36 30 26 25 24 16 13 9 5 3 3 3 4 5 7 11 16 15 15 15 17 20 21 17 15 20 18 16 19 19 26 20 17 27 36 16 18
47 52 51 48 45 41 35 30 28 26 24 18 13 9 2 2 5 6 6 6 9 12 18 16 16 19 20 20 18 17 18 16 16 15 19 23 30 22 21 39 29 25 23
51 52 53 51 46 42 35 31 29 26 24 20 14 9 3 2 9 8 7 5 10 10 20 17 15 16 20 20 18 17 16 14 13 19 24 28 27 29 22 29 26 24 30
52 54 53 51 47 43 36 32 30 27 25 21 16 12 6 5 7 7 8 9 10 14 17 19 17 16 17 17 16 15 15 18 13 13 20 21 29 33 24 27 26 24 24
55 55 53 51 46 42 37 33 31 28 26 23 20 14 8 8 9 10 10 12 12 15 15 19 19 18 18 16 16 17 17 23 15 16 18 20 23 21 22 21 25 26 36
52 55 56 53 48 43 39 35 32 31 28 24 22 18 14 11 13 12 10 13 15 15 18 22 20 20 19 17 17 22 21 23 20 19 21 23 24 23 22 19 23 28 43
49 53 54 54 51 46 43 39 35 34 30 25 24 21 18 13 12 11 10 14 17 19 19 20 21 24 22 20 21 21 18 18 21 23 23 22 22 21 22 19 21 30 42
53 56 59 57 53 47 46 43 37 36 32 28 25 24 21 17 12 10 10 12 19 19 20 23 23 26 24 24 26 21 17 14 20 27 24 25 23 19 19 21 27 28 27
50 50 54 55 53 46 46 43 39 38 35 30 27 26 24 20 15 12 12 12 20 15 14 23 26 25 30 31 25 21 22 22 28 30 27 28 21 19 25 26 31 30 41
43 44 50 56 55 51 48 46 43 40 38 35 30 28 28 24 19 16 12 13 15 13 17 23 32 28 31 30 21 22 25 30 28 27 32 37 41 41 35 40 39 39 42
47 45 48 54 56 55 51 50 47 44 43 39 34 30 30 27 22 19 14 14 12 13 11 20 34 32 33 32 27 26 20 35 42 38 32 39 43 44 36 44 49 50 50
32 42 53 62 62 60 56 52 49 46 43 40 37 33 32 29 25 21 17 17 15 14 17 30 40 33 34 35 30 25 30 36 45 41 38 52 41 34 37 37 45 45 51
33 49 55 60 62 64 60 55 52 46 43 42 40 36 34 31 28 25 21 20 19 18 20 29 31 30 37 39 37 38 35 39 41 33 40 36 33 38 38 41 39 40 46
30 46 49 55 62 66 64 59 53 51 48 45 44 40 36 36 32 30 27 23 22 19 20 21 24 32 34 41 39 39 40 34 34 29 28 33 36 34 33 35 36 39 27
34 49 54 57 63 67 66 58 55 54 52 49 47 44 41 38 37 34 30 26 24 24 23 23 24 24 27 40 48 46 38 36 31 33 33 34 35 33 36 36 37 27 30
36 48 58 62 65 69 67 61 58 58 56 51 48 47 44 43 39 38 35 32 28 25 25 25 24 27 27 29 43 50 47 43 34 36 37 31 27 30 31 33 31 28 32
37 46 55 56 59 65 70 66 63 64 62 57 53 50 47 46 41 42 38 43 35 37 36 34 27 25 26 30 35 43 49 49 46 41 32 32 32 32 32 32 31 29 33
Wind_Direction_850mb
281 279 275 276 254 232 206 202 200 197 188 195 196 210 228 240 248 256 259 256 262 262 266 266 257 246 239 240 239 241 245 233 211 191 184 181 192 196 202 210 203 200 211
283 274 268 254 230 202 190 188 186 190 189 187 190 204 215 236 245 255 254 255 255 266 266 253 239 236 231 232 238 238 231 204 191 178 172 168 181 198 198 193 191 198 198
279 264 227 203 184 179 180 179 180 184 183 182 195 215 228 247 267 266 258 244 250 250 241 228 222 229 233 239 231 213 190 193 184 180 188 175 184 179 186 188 186 190 185
251 213 185 167 167 164 161 162 170 178 188 195 192 196 219 244 239 233 243 242 245 225 218 221 229 236 233 215 205 192 202 191 183 184 192 197 163 181 171 180 183 178 177
220 194 175 160 154 152 154 159 169 176 185 193 182 199 226 224 232 245 252 245 236 214 218 227 228 228 203 188 187 195 191 184 185 182 183 190 186 203 190 170 170 171 178
159 154 153 149 147 148 154 159 166 172 182 178 186 204 192 202 240 266 262 249 251 219 210 212 223 210 188 187 186 191 171 171 176 190 199 204 183 182 179 177 174 173 160
153 151 152 153 148 153 158 160 165 170 172 172 180 187 192 220 265 277 275 256 229 202 211 208 213 200 178 182 186 186 180 189 196 207 212 197 187 189 179 174 169 161 157
155 154 154 156 153 156 161 161 168 170 171 171 178 185 208 243 279 283 256 222 197 192 192 192 197 187 174 178 187 182 167 184 172 174 170 201 211 221 188 169 170 157 149
157 155 156 156 157 161 163 164 168 170 169 171 177 188 199 223 251 265 200 176 138 156 170 171 179 164 167 179 187 183 170 164 159 174 171 193 219 162 165 171 175 154 152
157 157 160 159 160 163 161 163 169 168 168 172 172 181 192 229 225 177 192 168 156 148 157 162 160 153 161 176 182 192 178 164 160 160 163 165 162 140 145 156 161 171 171
161 161 161 162 162 164 163 167 167 167 171 170 168 165 162 237 172 160 154 157 147 148 158 159 158 155 156 164 175 170 174 178 169 161 149 144 148 153 135 150 154 168 177
161 162 163 163 165 166 168 171 170 170 172 171 162 150 122 166 173 141 117 122 137 142 156 157 155 150 157 160 163 162 171 165 157 155 149 154 159 136 136 142 156 181 191
158 162 165 167 170 169 172 176 174 173 173 169 164 150 126 132 152 138 125 116 123 133 146 162 163 153 150 151 157 166 169 185 164 161 165 150 156 158 144 149 155 154 145
163 165 167 171 174 172 176 179 178 177 175 169 167 164 142 137 145 140 116 124 123 132 142 151 157 159 153 154 163 175 172 171 163 170 147 154 171 163 158 158 157 155 146
167 171 171 173 175 174 178 181 181 179 177 173 171 171 158 142 127 109 111 132 126 139 139 154 147 164 161 162 166 161 167 174 183 174 170 166 155 160 165 158 159 156 154
176 176 174 175 177 177 180 182 182 181 178 175 175 174 173 170 156 134 110 126 141 131 141 147 154 156 155 155 155 161 169 168 162 163 168 158 149 146 146 152 155 156 157
181 180 179 179 179 179 181 183 180 179 178 177 177 176 176 176 165 160 144 139 137 142 141 150 157 153 150 147 143 147 151 156 169 167 157 145 141 154 161 160 153 162 176
189 185 181 181 180 177 181 181 179 179 178 179 180 179 176 177 173 157 155 134 147 143 160 168 162 156 153 142 133 127 130 134 130 149 148 145 138 145 152 144 142 167 152
199 192 188 180 177 176 181 181 179 180 181 183 183 182 177 175 174 165 156 147 145 145 140 167 173 165 159 151 146 142 133 129 132 138 142 138 121 120 124 139 138 137 141
195 190 185 182 179 177 179 182 181 181 184 186 183 182 179 178 176 171 160 151 141 130 129 161 167 167 165 146 146 133 137 138 130 122 122 153 136 130 118 127 128 132 131
206 194 184 183 181 178 178 183 185 185 185 184 182 182 180 180 180 176 167 156 137 131 118 124 147 152 155 148 142 137 140 144 130 118 118 128 129 133 132 133 137 135 137
205 197 189 184 182 181 181 184 188 184 183 183 183 183 182 179 183 182 172 161 154 135 134 136 152 162 167 159 153 143 148 137 139 133 133 128 129 133 135 139 147 148 144
210 197 194 190 182 184 185 186 187 183 182 184 184 185 183 182 186 184 179 171 164 158 146 144 147 170 171 174 165 156 156 149 142 141 144 141 142 144 144 145 147 149 142
206 195 191 197 187 187 188 189 184 182 184 184 184 186 186 185 188 188 190 185 180 178 170 164 162 165 172 182 178 172 168 170 162 169 159 154 154 150 153 154 154 154 158
203 195 195 197 198 187 187 186 185 182 184 186 186 187 189 189 192 190 195 194 196 187 185 180 174 170 174 184 182 188 186 179 176 168 169 168 167 171 175 180 183 182 181
206 201 198 199 200 195 186 186 187 185 184 185 188 191 190 193 195 195 200 198 199 202 187 188 178 184 184 193 177 178 180 180 188 182 184 186 186 188 191 192 194 195 195